Year,Month,Day,Hour,Minute,Value (Times are PST for temperature in C)
2016,08,20,00,00,16.90
2016,08,20,00,01,16.80
2016,08,20,00,02,16.80
2016,08,20,00,03,16.80
2016,08,20,00,04,16.80
2016,08,20,00,05,16.80
2016,08,20,00,06,16.70
2016,08,20,00,07,16.70
2016,08,20,00,08,16.70
2016,08,20,00,09,16.70
2016,08,20,00,10,16.70
2016,08,20,00,11,16.70
2016,08,20,00,12,16.70
2016,08,20,00,13,16.60
2016,08,20,00,14,16.60
2016,08,20,00,15,16.60
2016,08,20,00,16,16.60
2016,08,20,00,17,16.60
2016,08,20,00,18,16.50
2016,08,20,00,19,16.50
2016,08,20,00,20,16.50
2016,08,20,00,21,16.40
2016,08,20,00,22,16.40
2016,08,20,00,23,16.40
2016,08,20,00,24,16.40
2016,08,20,00,25,16.40
2016,08,20,00,26,16.40
2016,08,20,00,27,16.30
2016,08,20,00,28,16.30
2016,08,20,00,29,16.30
2016,08,20,00,30,16.30
2016,08,20,00,31,16.30
2016,08,20,00,32,16.30
2016,08,20,00,33,16.20
2016,08,20,00,34,16.20
2016,08,20,00,35,16.20
2016,08,20,00,36,16.20
2016,08,20,00,37,16.20
2016,08,20,00,38,16.10
2016,08,20,00,39,16.10
2016,08,20,00,40,16.10
2016,08,20,00,41,16.10
2016,08,20,00,42,16.10
2016,08,20,00,43,16.00
2016,08,20,00,44,16.00
2016,08,20,00,45,16.00
2016,08,20,00,46,15.90
2016,08,20,00,47,15.90
2016,08,20,00,48,15.90
2016,08,20,00,49,15.90
2016,08,20,00,50,15.90
2016,08,20,00,51,15.90
2016,08,20,00,52,15.90
2016,08,20,00,53,15.90
2016,08,20,00,54,15.80
2016,08,20,00,55,15.80
2016,08,20,00,56,15.80
2016,08,20,00,57,15.80
2016,08,20,00,58,15.80
2016,08,20,00,59,15.80
2016,08,20,01,00,15.80
2016,08,20,01,01,15.80
2016,08,20,01,02,15.80
2016,08,20,01,03,15.80
2016,08,20,01,04,15.80
2016,08,20,01,05,15.80
2016,08,20,01,06,15.80
2016,08,20,01,07,15.80
2016,08,20,01,08,15.80
2016,08,20,01,09,15.80
2016,08,20,01,10,15.70
2016,08,20,01,11,15.70
2016,08,20,01,12,15.70
2016,08,20,01,13,15.70
2016,08,20,01,14,15.70
2016,08,20,01,15,15.70
2016,08,20,01,16,15.70
2016,08,20,01,17,15.60
2016,08,20,01,18,15.60
2016,08,20,01,19,15.60
2016,08,20,01,20,15.60
2016,08,20,01,21,15.60
2016,08,20,01,22,15.60
2016,08,20,01,23,15.60
2016,08,20,01,24,15.60
2016,08,20,01,25,15.60
2016,08,20,01,26,15.60
2016,08,20,01,27,15.50
2016,08,20,01,28,15.50
2016,08,20,01,29,15.50
2016,08,20,01,30,15.50
2016,08,20,01,31,15.40
2016,08,20,01,32,15.40
2016,08,20,01,33,15.40
2016,08,20,01,34,15.40
2016,08,20,01,35,15.40
2016,08,20,01,36,15.40
2016,08,20,01,37,15.40
2016,08,20,01,38,15.40
2016,08,20,01,39,15.40
2016,08,20,01,40,15.40
2016,08,20,01,41,15.40
2016,08,20,01,42,15.40
2016,08,20,01,43,15.40
2016,08,20,01,44,15.30
2016,08,20,01,45,15.30
2016,08,20,01,46,15.30
2016,08,20,01,47,15.30
2016,08,20,01,48,15.30
2016,08,20,01,49,15.30
2016,08,20,01,50,15.30
2016,08,20,01,51,15.20
2016,08,20,01,52,15.20
2016,08,20,01,53,15.20
2016,08,20,01,54,15.20
2016,08,20,01,55,15.20
2016,08,20,01,56,15.20
2016,08,20,01,57,15.20
2016,08,20,01,58,15.10
2016,08,20,01,59,15.10
2016,08,20,02,00,15.10
2016,08,20,02,01,15.10
2016,08,20,02,02,15.10
2016,08,20,02,03,15.10
2016,08,20,02,04,15.00
2016,08,20,02,05,15.00
2016,08,20,02,06,15.00
2016,08,20,02,07,15.00
2016,08,20,02,08,15.00
2016,08,20,02,09,14.90
2016,08,20,02,10,14.90
2016,08,20,02,11,14.90
2016,08,20,02,12,14.90
2016,08,20,02,13,14.80
2016,08,20,02,14,14.80
2016,08,20,02,15,14.80
2016,08,20,02,16,14.80
2016,08,20,02,17,14.80
2016,08,20,02,18,14.80
2016,08,20,02,19,14.80
2016,08,20,02,20,14.70
2016,08,20,02,21,14.70
2016,08,20,02,22,14.70
2016,08,20,02,23,14.70
2016,08,20,02,24,14.70
2016,08,20,02,25,14.70
2016,08,20,02,26,14.60
2016,08,20,02,27,14.60
2016,08,20,02,28,14.60
2016,08,20,02,29,14.60
2016,08,20,02,30,14.60
2016,08,20,02,31,14.60
2016,08,20,02,32,14.60
2016,08,20,02,33,14.50
2016,08,20,02,34,14.50
2016,08,20,02,35,14.50
2016,08,20,02,36,14.50
2016,08,20,02,37,14.40
2016,08,20,02,38,14.40
2016,08,20,02,39,14.40
2016,08,20,02,40,14.40
2016,08,20,02,41,14.40
2016,08,20,02,42,14.40
2016,08,20,02,43,14.40
2016,08,20,02,44,14.40
2016,08,20,02,45,14.30
2016,08,20,02,46,14.30
2016,08,20,02,47,14.30
2016,08,20,02,48,14.30
2016,08,20,02,49,14.30
2016,08,20,02,50,14.30
2016,08,20,02,51,14.30
2016,08,20,02,52,14.30
2016,08,20,02,53,14.30
2016,08,20,02,54,14.30
2016,08,20,02,55,14.30
2016,08,20,02,56,14.30
2016,08,20,02,57,14.20
2016,08,20,02,58,14.20
2016,08,20,02,59,14.20
2016,08,20,03,00,14.20
2016,08,20,03,01,14.20
2016,08,20,03,02,14.20
2016,08,20,03,03,14.20
2016,08,20,03,04,14.20
2016,08,20,03,05,14.10
2016,08,20,03,06,14.10
2016,08,20,03,07,14.10
2016,08,20,03,08,14.10
2016,08,20,03,09,14.10
2016,08,20,03,10,14.00
2016,08,20,03,11,14.00
2016,08,20,03,12,14.00
2016,08,20,03,13,14.00
2016,08,20,03,14,13.90
2016,08,20,03,15,13.90
2016,08,20,03,16,13.90
2016,08,20,03,17,13.90
2016,08,20,03,18,13.90
2016,08,20,03,19,13.90
2016,08,20,03,20,13.80
2016,08,20,03,21,13.80
2016,08,20,03,22,13.80
2016,08,20,03,23,13.80
2016,08,20,03,24,13.80
2016,08,20,03,25,13.80
2016,08,20,03,26,13.70
2016,08,20,03,27,13.70
2016,08,20,03,28,13.70
2016,08,20,03,29,13.70
2016,08,20,03,30,13.70
2016,08,20,03,31,13.70
2016,08,20,03,32,13.70
2016,08,20,03,33,13.60
2016,08,20,03,34,13.60
2016,08,20,03,35,13.60
2016,08,20,03,36,13.60
2016,08,20,03,37,13.50
2016,08,20,03,38,13.50
2016,08,20,03,39,13.50
2016,08,20,03,40,13.50
2016,08,20,03,41,13.40
2016,08,20,03,42,13.40
2016,08,20,03,43,13.40
2016,08,20,03,44,13.40
2016,08,20,03,45,13.40
2016,08,20,03,46,13.30
2016,08,20,03,47,13.30
2016,08,20,03,48,13.30
2016,08,20,03,49,13.30
2016,08,20,03,50,13.30
2016,08,20,03,51,13.30
2016,08,20,03,52,13.30
2016,08,20,03,53,13.30
2016,08,20,03,54,13.30
2016,08,20,03,55,13.30
2016,08,20,03,56,13.30
2016,08,20,03,57,13.30
2016,08,20,03,58,13.30
2016,08,20,03,59,13.30
2016,08,20,04,00,13.30
2016,08,20,04,01,13.30
2016,08,20,04,02,13.30
2016,08,20,04,03,13.30
2016,08,20,04,04,13.30
2016,08,20,04,05,13.20
2016,08,20,04,06,13.20
2016,08,20,04,07,13.20
2016,08,20,04,08,13.20
2016,08,20,04,09,13.20
2016,08,20,04,10,13.20
2016,08,20,04,11,13.20
2016,08,20,04,12,13.20
2016,08,20,04,13,13.20
2016,08,20,04,14,13.10
2016,08,20,04,15,13.10
2016,08,20,04,16,13.10
2016,08,20,04,17,13.10
2016,08,20,04,18,13.10
2016,08,20,04,19,13.10
2016,08,20,04,20,13.10
2016,08,20,04,21,13.10
2016,08,20,04,22,13.10
2016,08,20,04,23,13.10
2016,08,20,04,24,13.10
2016,08,20,04,25,13.10
2016,08,20,04,26,13.10
2016,08,20,04,27,13.10
2016,08,20,04,28,13.10
2016,08,20,04,29,13.10
2016,08,20,04,30,13.10
2016,08,20,04,31,13.10
2016,08,20,04,32,13.10
2016,08,20,04,33,13.10
2016,08,20,04,34,13.10
2016,08,20,04,35,13.10
2016,08,20,04,36,13.10
2016,08,20,04,37,13.10
2016,08,20,04,38,13.00
2016,08,20,04,39,13.10
2016,08,20,04,40,13.00
2016,08,20,04,41,13.00
2016,08,20,04,42,13.00
2016,08,20,04,43,13.00
2016,08,20,04,44,13.00
2016,08,20,04,45,13.00
2016,08,20,04,46,13.00
2016,08,20,04,47,13.00
2016,08,20,04,48,13.00
2016,08,20,04,49,13.00
2016,08,20,04,50,13.00
2016,08,20,04,51,13.00
2016,08,20,04,52,13.00
2016,08,20,04,53,13.00
2016,08,20,04,54,12.90
2016,08,20,04,55,12.90
2016,08,20,04,56,12.90
2016,08,20,04,57,12.90
2016,08,20,04,58,12.90
2016,08,20,04,59,12.90
2016,08,20,05,00,12.90
2016,08,20,05,01,12.90
2016,08,20,05,02,12.80
2016,08,20,05,03,12.80
2016,08,20,05,04,12.80
2016,08,20,05,05,12.80
2016,08,20,05,06,12.80
2016,08,20,05,07,12.80
2016,08,20,05,08,12.80
2016,08,20,05,09,12.80
2016,08,20,05,10,12.80
2016,08,20,05,11,12.70
2016,08,20,05,12,12.70
2016,08,20,05,13,12.70
2016,08,20,05,14,12.70
2016,08,20,05,15,12.70
2016,08,20,05,16,12.70
2016,08,20,05,17,12.60
2016,08,20,05,18,12.60
2016,08,20,05,19,12.60
2016,08,20,05,20,12.60
2016,08,20,05,21,12.60
2016,08,20,05,22,12.60
2016,08,20,05,23,12.60
2016,08,20,05,24,12.60
2016,08,20,05,25,12.60
2016,08,20,05,26,12.60
2016,08,20,05,27,12.60
2016,08,20,05,28,12.60
2016,08,20,05,29,12.60
2016,08,20,05,30,12.50
2016,08,20,05,31,12.50
2016,08,20,05,32,12.50
2016,08,20,05,33,12.50
2016,08,20,05,34,12.50
2016,08,20,05,35,12.50
2016,08,20,05,36,12.50
2016,08,20,05,37,12.60
2016,08,20,05,38,12.60
2016,08,20,05,39,12.60
2016,08,20,05,40,12.50
2016,08,20,05,41,12.60
2016,08,20,05,42,12.60
2016,08,20,05,43,12.50
2016,08,20,05,44,12.50
2016,08,20,05,45,12.50
2016,08,20,05,46,12.50
2016,08,20,05,47,12.50
2016,08,20,05,48,12.50
2016,08,20,05,49,12.50
2016,08,20,05,50,12.50
2016,08,20,05,51,12.50
2016,08,20,05,52,12.50
2016,08,20,05,53,12.50
2016,08,20,05,54,12.40
2016,08,20,05,55,12.40
2016,08,20,05,56,12.40
2016,08,20,05,57,12.40
2016,08,20,05,58,12.40
2016,08,20,05,59,12.40
2016,08,20,06,00,12.40
2016,08,20,06,01,12.40
2016,08,20,06,02,12.40
2016,08,20,06,03,12.40
2016,08,20,06,04,12.40
2016,08,20,06,05,12.40
2016,08,20,06,06,12.40
2016,08,20,06,07,12.40
2016,08,20,06,08,12.40
2016,08,20,06,09,12.40
2016,08,20,06,10,12.40
2016,08,20,06,11,12.40
2016,08,20,06,12,12.40
2016,08,20,06,13,12.40
2016,08,20,06,14,12.40
2016,08,20,06,15,12.40
2016,08,20,06,16,12.40
2016,08,20,06,17,12.40
2016,08,20,06,18,12.40
2016,08,20,06,19,12.40
2016,08,20,06,20,12.40
2016,08,20,06,21,12.40
2016,08,20,06,22,12.40
2016,08,20,06,23,12.40
2016,08,20,06,24,12.40
2016,08,20,06,25,12.40
2016,08,20,06,26,12.40
2016,08,20,06,27,12.40
2016,08,20,06,28,12.40
2016,08,20,06,29,12.40
2016,08,20,06,30,12.40
2016,08,20,06,31,12.40
2016,08,20,06,32,12.40
2016,08,20,06,33,12.40
2016,08,20,06,34,12.30
2016,08,20,06,35,12.30
2016,08,20,06,36,12.30
2016,08,20,06,37,12.30
2016,08,20,06,38,12.30
2016,08,20,06,39,12.30
2016,08,20,06,40,12.30
2016,08,20,06,41,12.30
2016,08,20,06,42,12.30
2016,08,20,06,43,12.30
2016,08,20,06,44,12.30
2016,08,20,06,45,12.30
2016,08,20,06,46,12.30
2016,08,20,06,47,12.30
2016,08,20,06,48,12.30
2016,08,20,06,49,12.20
2016,08,20,06,50,12.30
2016,08,20,06,51,12.20
2016,08,20,06,52,12.20
2016,08,20,06,53,12.20
2016,08,20,06,54,12.20
2016,08,20,06,55,12.20
2016,08,20,06,56,12.20
2016,08,20,06,57,12.20
2016,08,20,06,58,12.20
2016,08,20,06,59,12.20
2016,08,20,07,00,12.20
2016,08,20,07,01,12.20
2016,08,20,07,02,12.20
2016,08,20,07,03,12.20
2016,08,20,07,04,12.20
2016,08,20,07,05,12.20
2016,08,20,07,06,12.20
2016,08,20,07,07,12.20
2016,08,20,07,08,12.20
2016,08,20,07,09,12.20
2016,08,20,07,10,12.20
2016,08,20,07,11,12.20
2016,08,20,07,12,12.20
2016,08,20,07,13,12.20
2016,08,20,07,14,12.20
2016,08,20,07,15,12.20
2016,08,20,07,16,12.30
2016,08,20,07,17,12.30
2016,08,20,07,18,12.30
2016,08,20,07,19,12.30
2016,08,20,07,20,12.30
2016,08,20,07,21,12.30
2016,08,20,07,22,12.30
2016,08,20,07,23,12.30
2016,08,20,07,24,12.30
2016,08,20,07,25,12.30
2016,08,20,07,26,12.30
2016,08,20,07,27,12.30
2016,08,20,07,28,12.30
2016,08,20,07,29,12.40
2016,08,20,07,30,12.40
2016,08,20,07,31,12.40
2016,08,20,07,32,12.40
2016,08,20,07,33,12.40
2016,08,20,07,34,12.50
2016,08,20,07,35,12.50
2016,08,20,07,36,12.50
2016,08,20,07,37,12.60
2016,08,20,07,38,12.60
2016,08,20,07,39,12.60
2016,08,20,07,40,12.60
2016,08,20,07,41,12.70
2016,08,20,07,42,12.70
2016,08,20,07,43,12.80
2016,08,20,07,44,12.80
2016,08,20,07,45,12.90
2016,08,20,07,46,12.90
2016,08,20,07,47,13.00
2016,08,20,07,48,13.10
2016,08,20,07,49,13.20
2016,08,20,07,50,13.30
2016,08,20,07,51,13.40
2016,08,20,07,52,13.50
2016,08,20,07,53,13.70
2016,08,20,07,54,13.80
2016,08,20,07,55,13.90
2016,08,20,07,56,14.00
2016,08,20,07,57,14.20
2016,08,20,07,58,14.30
2016,08,20,07,59,14.40
2016,08,20,08,00,14.50
2016,08,20,08,01,14.70
2016,08,20,08,02,14.80
2016,08,20,08,03,14.90
2016,08,20,08,04,15.00
2016,08,20,08,05,15.20
2016,08,20,08,06,15.30
2016,08,20,08,07,15.40
2016,08,20,08,08,15.60
2016,08,20,08,09,15.70
2016,08,20,08,10,15.80
2016,08,20,08,11,16.00
2016,08,20,08,12,16.10
2016,08,20,08,13,16.20
2016,08,20,08,14,16.30
2016,08,20,08,15,16.40
2016,08,20,08,16,16.50
2016,08,20,08,17,16.60
2016,08,20,08,18,16.70
2016,08,20,08,19,16.90
2016,08,20,08,20,17.00
2016,08,20,08,21,17.10
2016,08,20,08,22,17.30
2016,08,20,08,23,17.40
2016,08,20,08,24,17.50
2016,08,20,08,25,17.60
2016,08,20,08,26,17.80
2016,08,20,08,27,17.90
2016,08,20,08,28,18.00
2016,08,20,08,29,18.10
2016,08,20,08,30,18.20
2016,08,20,08,31,18.40
2016,08,20,08,32,18.50
2016,08,20,08,33,18.60
2016,08,20,08,34,18.70
2016,08,20,08,35,18.90
2016,08,20,08,36,19.00
2016,08,20,08,37,19.10
2016,08,20,08,38,19.20
2016,08,20,08,39,19.30
2016,08,20,08,40,19.50
2016,08,20,08,41,19.60
2016,08,20,08,42,19.70
2016,08,20,08,43,19.80
2016,08,20,08,44,19.90
2016,08,20,08,45,20.00
2016,08,20,08,46,20.10
2016,08,20,08,47,20.20
2016,08,20,08,48,20.30
2016,08,20,08,49,20.50
2016,08,20,08,50,20.60
2016,08,20,08,51,20.70
2016,08,20,08,52,20.80
2016,08,20,08,53,21.00
2016,08,20,08,54,21.10
2016,08,20,08,55,21.30
2016,08,20,08,56,21.40
2016,08,20,08,57,21.50
2016,08,20,08,58,21.60
2016,08,20,08,59,21.80
2016,08,20,09,00,21.90
2016,08,20,09,01,22.00
2016,08,20,09,02,22.20
2016,08,20,09,03,22.30
2016,08,20,09,04,22.40
2016,08,20,09,05,22.50
2016,08,20,09,06,22.60
2016,08,20,09,07,22.70
2016,08,20,09,08,22.80
2016,08,20,09,09,23.00
2016,08,20,09,10,23.10
2016,08,20,09,11,23.20
2016,08,20,09,12,23.20
2016,08,20,09,13,23.30
2016,08,20,09,14,23.40
2016,08,20,09,15,23.40
2016,08,20,09,16,23.50
2016,08,20,09,17,23.50
2016,08,20,09,18,23.60
2016,08,20,09,19,23.70
2016,08,20,09,20,23.70
2016,08,20,09,21,23.80
2016,08,20,09,22,23.90
2016,08,20,09,23,24.00
2016,08,20,09,24,24.00
2016,08,20,09,25,24.10
2016,08,20,09,26,24.20
2016,08,20,09,27,24.20
2016,08,20,09,28,24.30
2016,08,20,09,29,24.30
2016,08,20,09,30,24.40
2016,08,20,09,31,24.40
2016,08,20,09,32,24.50
2016,08,20,09,33,24.50
2016,08,20,09,34,24.60
2016,08,20,09,35,24.60
2016,08,20,09,36,24.70
2016,08,20,09,37,24.80
2016,08,20,09,38,24.90
2016,08,20,09,39,25.00
2016,08,20,09,40,25.10
2016,08,20,09,41,25.20
2016,08,20,09,42,25.30
2016,08,20,09,43,25.50
2016,08,20,09,44,25.60
2016,08,20,09,45,25.70
2016,08,20,09,46,25.80
2016,08,20,09,47,25.80
2016,08,20,09,48,25.90
2016,08,20,09,49,26.00
2016,08,20,09,50,26.00
2016,08,20,09,51,26.10
2016,08,20,09,52,26.20
2016,08,20,09,53,26.30
2016,08,20,09,54,26.30
2016,08,20,09,55,26.40
2016,08,20,09,56,26.50
2016,08,20,09,57,26.50
2016,08,20,09,58,26.60
2016,08,20,09,59,26.60
2016,08,20,10,00,26.60
2016,08,20,10,01,26.50
2016,08,20,10,02,26.50
2016,08,20,10,03,26.40
2016,08,20,10,04,26.40
2016,08,20,10,05,26.40
2016,08,20,10,06,26.40
2016,08,20,10,07,26.40
2016,08,20,10,08,26.40
2016,08,20,10,09,26.40
2016,08,20,10,10,26.50
2016,08,20,10,11,26.50
2016,08,20,10,12,26.60
2016,08,20,10,13,26.60
2016,08,20,10,14,26.60
2016,08,20,10,15,26.60
2016,08,20,10,16,26.70
2016,08,20,10,17,26.70
2016,08,20,10,18,26.70
2016,08,20,10,19,26.60
2016,08,20,10,20,26.60
2016,08,20,10,21,26.60
2016,08,20,10,22,26.50
2016,08,20,10,23,26.50
2016,08,20,10,24,26.50
2016,08,20,10,25,26.40
2016,08,20,10,26,26.40
2016,08,20,10,27,26.40
2016,08,20,10,28,26.40
2016,08,20,10,29,26.50
2016,08,20,10,30,26.50
2016,08,20,10,31,26.50
2016,08,20,10,32,26.50
2016,08,20,10,33,26.50
2016,08,20,10,34,26.40
2016,08,20,10,35,26.40
2016,08,20,10,36,26.40
2016,08,20,10,37,26.30
2016,08,20,10,38,26.30
2016,08,20,10,39,26.30
2016,08,20,10,40,26.30
2016,08,20,10,41,26.30
2016,08,20,10,42,26.30
2016,08,20,10,43,26.20
2016,08,20,10,44,26.20
2016,08,20,10,45,26.20
2016,08,20,10,46,26.20
2016,08,20,10,47,26.10
2016,08,20,10,48,26.10
2016,08,20,10,49,26.10
2016,08,20,10,50,26.00
2016,08,20,10,51,25.90
2016,08,20,10,52,25.80
2016,08,20,10,53,25.80
2016,08,20,10,54,25.80
2016,08,20,10,55,25.80
2016,08,20,10,56,25.70
2016,08,20,10,57,25.70
2016,08,20,10,58,25.70
2016,08,20,10,59,25.70
2016,08,20,11,00,25.80
2016,08,20,11,01,25.90
2016,08,20,11,02,25.90
2016,08,20,11,03,26.00
2016,08,20,11,04,26.10
2016,08,20,11,05,26.10
2016,08,20,11,06,26.10
2016,08,20,11,07,26.20
2016,08,20,11,08,26.20
2016,08,20,11,09,26.20
2016,08,20,11,10,26.20
2016,08,20,11,11,26.30
2016,08,20,11,12,26.30
2016,08,20,11,13,26.30
2016,08,20,11,14,26.30
2016,08,20,11,15,26.30
2016,08,20,11,16,26.30
2016,08,20,11,17,26.30
2016,08,20,11,18,26.40
2016,08,20,11,19,26.50
2016,08,20,11,20,26.50
2016,08,20,11,21,26.50
2016,08,20,11,22,26.50
2016,08,20,11,23,26.50
2016,08,20,11,24,26.50
2016,08,20,11,25,26.50
2016,08,20,11,26,26.50
2016,08,20,11,27,26.50
2016,08,20,11,28,26.60
2016,08,20,11,29,26.60
2016,08,20,11,30,26.60
2016,08,20,11,31,26.60
2016,08,20,11,32,26.70
2016,08,20,11,33,26.70
2016,08,20,11,34,26.80
2016,08,20,11,35,26.80
2016,08,20,11,36,26.80
2016,08,20,11,37,26.80
2016,08,20,11,38,26.80
2016,08,20,11,39,26.80
2016,08,20,11,40,26.80
2016,08,20,11,41,26.80
2016,08,20,11,42,26.80
2016,08,20,11,43,26.80
2016,08,20,11,44,26.80
2016,08,20,11,45,26.80
2016,08,20,11,46,26.80
2016,08,20,11,47,26.80
2016,08,20,11,48,26.80
2016,08,20,11,49,26.80
2016,08,20,11,50,26.90
2016,08,20,11,51,26.90
2016,08,20,11,52,26.90
2016,08,20,11,53,26.90
2016,08,20,11,54,26.90
2016,08,20,11,55,26.90
2016,08,20,11,56,26.90
2016,08,20,11,57,26.90
2016,08,20,11,58,27.00
2016,08,20,11,59,27.00
2016,08,20,12,00,27.10
2016,08,20,12,01,27.10
2016,08,20,12,02,27.10
2016,08,20,12,03,27.10
2016,08,20,12,04,27.20
2016,08,20,12,05,27.20
2016,08,20,12,06,27.30
2016,08,20,12,07,27.30
2016,08,20,12,08,27.30
2016,08,20,12,09,27.30
2016,08,20,12,10,27.30
2016,08,20,12,11,27.30
2016,08,20,12,12,27.30
2016,08,20,12,13,27.30
2016,08,20,12,14,27.30
2016,08,20,12,15,27.30
2016,08,20,12,16,27.30
2016,08,20,12,17,27.30
2016,08,20,12,18,27.40
2016,08,20,12,19,27.40
2016,08,20,12,20,27.40
2016,08,20,12,21,27.40
2016,08,20,12,22,27.40
2016,08,20,12,23,27.30
2016,08,20,12,24,27.30
2016,08,20,12,25,27.30
2016,08,20,12,26,27.30
2016,08,20,12,27,27.40
2016,08,20,12,28,27.40
2016,08,20,12,29,27.30
2016,08,20,12,30,27.30
2016,08,20,12,31,27.20
2016,08,20,12,32,27.10
2016,08,20,12,33,27.10
2016,08,20,12,34,27.10
2016,08,20,12,35,27.10
2016,08,20,12,36,27.00
2016,08,20,12,37,27.10
2016,08,20,12,38,27.00
2016,08,20,12,39,27.00
2016,08,20,12,40,27.00
2016,08,20,12,41,27.00
2016,08,20,12,42,27.00
2016,08,20,12,43,27.00
2016,08,20,12,44,27.00
2016,08,20,12,45,26.90
2016,08,20,12,46,26.90
2016,08,20,12,47,26.90
2016,08,20,12,48,26.90
2016,08,20,12,49,27.00
2016,08,20,12,50,27.00
2016,08,20,12,51,27.00
2016,08,20,12,52,26.90
2016,08,20,12,53,26.80
2016,08,20,12,54,26.80
2016,08,20,12,55,26.70
2016,08,20,12,56,26.70
2016,08,20,12,57,26.60
2016,08,20,12,58,26.70
2016,08,20,12,59,26.70
2016,08,20,13,00,26.70
2016,08,20,13,01,26.80
2016,08,20,13,02,26.90
2016,08,20,13,03,27.00
2016,08,20,13,04,27.10
2016,08,20,13,05,27.10
2016,08,20,13,06,27.20
2016,08,20,13,07,27.30
2016,08,20,13,08,27.40
2016,08,20,13,09,27.40
2016,08,20,13,10,27.40
2016,08,20,13,11,27.30
2016,08,20,13,12,27.30
2016,08,20,13,13,27.30
2016,08,20,13,14,27.30
2016,08,20,13,15,27.30
2016,08,20,13,16,27.40
2016,08,20,13,17,27.50
2016,08,20,13,18,27.50
2016,08,20,13,19,27.40
2016,08,20,13,20,27.40
2016,08,20,13,21,27.50
2016,08,20,13,22,27.50
2016,08,20,13,23,27.60
2016,08,20,13,24,27.60
2016,08,20,13,25,27.60
2016,08,20,13,26,27.60
2016,08,20,13,27,27.60
2016,08,20,13,28,27.60
2016,08,20,13,29,27.60
2016,08,20,13,30,27.70
2016,08,20,13,31,27.70
2016,08,20,13,32,27.70
2016,08,20,13,33,27.70
2016,08,20,13,34,27.80
2016,08,20,13,35,27.80
2016,08,20,13,36,27.80
2016,08,20,13,37,27.80
2016,08,20,13,38,27.80
2016,08,20,13,39,27.80
2016,08,20,13,40,27.90
2016,08,20,13,41,27.90
2016,08,20,13,42,27.80
2016,08,20,13,43,27.80
2016,08,20,13,44,27.80
2016,08,20,13,45,27.80
2016,08,20,13,46,27.80
2016,08,20,13,47,27.80
2016,08,20,13,48,27.80
2016,08,20,13,49,27.80
2016,08,20,13,50,27.80
2016,08,20,13,51,27.70
2016,08,20,13,52,27.70
2016,08,20,13,53,27.70
2016,08,20,13,54,27.70
2016,08,20,13,55,27.70
2016,08,20,13,56,27.70
2016,08,20,13,57,27.70
2016,08,20,13,58,27.70
2016,08,20,13,59,27.70
2016,08,20,14,00,27.80
2016,08,20,14,01,27.80
2016,08,20,14,02,27.90
2016,08,20,14,03,28.00
2016,08,20,14,04,28.00
2016,08,20,14,05,28.10
2016,08,20,14,06,28.10
2016,08,20,14,07,28.10
2016,08,20,14,08,28.20
2016,08,20,14,09,28.20
2016,08,20,14,10,28.30
2016,08,20,14,11,28.30
2016,08,20,14,12,28.40
2016,08,20,14,13,28.40
2016,08,20,14,14,28.40
2016,08,20,14,15,28.40
2016,08,20,14,16,28.50
2016,08,20,14,17,28.60
2016,08,20,14,18,28.60
2016,08,20,14,19,28.70
2016,08,20,14,20,28.70
2016,08,20,14,21,28.60
2016,08,20,14,22,28.50
2016,08,20,14,23,28.50
2016,08,20,14,24,28.40
2016,08,20,14,25,28.40
2016,08,20,14,26,28.50
2016,08,20,14,27,28.50
2016,08,20,14,28,28.60
2016,08,20,14,29,28.70
2016,08,20,14,30,28.80
2016,08,20,14,31,28.80
2016,08,20,14,32,28.70
2016,08,20,14,33,28.70
2016,08,20,14,34,28.70
2016,08,20,14,35,28.70
2016,08,20,14,36,28.70
2016,08,20,14,37,28.80
2016,08,20,14,38,28.80
2016,08,20,14,39,28.80
2016,08,20,14,40,28.80
2016,08,20,14,41,28.90
2016,08,20,14,42,28.90
2016,08,20,14,43,29.00
2016,08,20,14,44,29.10
2016,08,20,14,45,29.10
2016,08,20,14,46,29.20
2016,08,20,14,47,29.20
2016,08,20,14,48,29.20
2016,08,20,14,49,29.20
2016,08,20,14,50,29.20
2016,08,20,14,51,29.20
2016,08,20,14,52,29.10
2016,08,20,14,53,29.20
2016,08,20,14,54,29.20
2016,08,20,14,55,29.20
2016,08,20,14,56,29.20
2016,08,20,14,57,29.20
2016,08,20,14,58,29.20
2016,08,20,14,59,29.20
2016,08,20,15,00,29.10
2016,08,20,15,01,29.10
2016,08,20,15,02,29.10
2016,08,20,15,03,29.10
2016,08,20,15,04,29.10
2016,08,20,15,05,29.10
2016,08,20,15,06,29.10
2016,08,20,15,07,29.10
2016,08,20,15,08,29.10
2016,08,20,15,09,29.20
2016,08,20,15,10,29.20
2016,08,20,15,11,29.30
2016,08,20,15,12,29.30
2016,08,20,15,13,29.40
2016,08,20,15,14,29.40
2016,08,20,15,15,29.40
2016,08,20,15,16,29.40
2016,08,20,15,17,29.40
2016,08,20,15,18,29.40
2016,08,20,15,19,29.40
2016,08,20,15,20,29.30
2016,08,20,15,21,29.30
2016,08,20,15,22,29.30
2016,08,20,15,23,29.30
2016,08,20,15,24,29.20
2016,08,20,15,25,29.20
2016,08,20,15,26,29.20
2016,08,20,15,27,29.20
2016,08,20,15,28,29.20
2016,08,20,15,29,29.20
2016,08,20,15,30,29.20
2016,08,20,15,31,29.30
2016,08,20,15,32,29.30
2016,08,20,15,33,29.30
2016,08,20,15,34,29.30
2016,08,20,15,35,29.30
2016,08,20,15,36,29.30
2016,08,20,15,37,29.30
2016,08,20,15,38,29.30
2016,08,20,15,39,29.30
2016,08,20,15,40,29.30
2016,08,20,15,41,29.40
2016,08,20,15,42,29.40
2016,08,20,15,43,29.40
2016,08,20,15,44,29.40
2016,08,20,15,45,29.40
2016,08,20,15,46,29.40
2016,08,20,15,47,29.40
2016,08,20,15,48,29.40
2016,08,20,15,49,29.50
2016,08,20,15,50,29.60
2016,08,20,15,51,29.60
2016,08,20,15,52,29.60
2016,08,20,15,53,29.50
2016,08,20,15,54,29.50
2016,08,20,15,55,29.50
2016,08,20,15,56,29.60
2016,08,20,15,57,29.60
2016,08,20,15,58,29.60
2016,08,20,15,59,29.60
2016,08,20,16,00,29.60
2016,08,20,16,01,29.60
2016,08,20,16,02,29.70
2016,08,20,16,03,29.70
2016,08,20,16,04,29.80
2016,08,20,16,05,29.80
2016,08,20,16,06,29.80
2016,08,20,16,07,29.80
2016,08,20,16,08,29.80
2016,08,20,16,09,29.80
2016,08,20,16,10,29.80
2016,08,20,16,11,29.80
2016,08,20,16,12,29.80
2016,08,20,16,13,29.80
2016,08,20,16,14,29.70
2016,08,20,16,15,29.70
2016,08,20,16,16,29.70
2016,08,20,16,17,29.70
2016,08,20,16,18,29.70
2016,08,20,16,19,29.70
2016,08,20,16,20,29.60
2016,08,20,16,21,29.60
2016,08,20,16,22,29.50
2016,08,20,16,23,29.50
2016,08,20,16,24,29.50
2016,08,20,16,25,29.50
2016,08,20,16,26,29.60
2016,08,20,16,27,29.70
2016,08,20,16,28,29.80
2016,08,20,16,29,29.80
2016,08,20,16,30,29.80
2016,08,20,16,31,29.90
2016,08,20,16,32,29.90
2016,08,20,16,33,29.90
2016,08,20,16,34,29.90
2016,08,20,16,35,29.90
2016,08,20,16,36,29.80
2016,08,20,16,37,29.80
2016,08,20,16,38,29.80
2016,08,20,16,39,29.80
2016,08,20,16,40,29.80
2016,08,20,16,41,29.80
2016,08,20,16,42,29.80
2016,08,20,16,43,29.80
2016,08,20,16,44,29.70
2016,08,20,16,45,29.70
2016,08,20,16,46,29.70
2016,08,20,16,47,29.60
2016,08,20,16,48,29.60
2016,08,20,16,49,29.60
2016,08,20,16,50,29.60
2016,08,20,16,51,29.60
2016,08,20,16,52,29.60
2016,08,20,16,53,29.70
2016,08,20,16,54,29.70
2016,08,20,16,55,29.80
2016,08,20,16,56,29.80
2016,08,20,16,57,29.90
2016,08,20,16,58,30.00
2016,08,20,16,59,30.00
2016,08,20,17,00,30.10
2016,08,20,17,01,30.00
2016,08,20,17,02,29.90
2016,08,20,17,03,29.90
2016,08,20,17,04,29.80
2016,08,20,17,05,29.80
2016,08,20,17,06,29.80
2016,08,20,17,07,29.80
2016,08,20,17,08,29.80
2016,08,20,17,09,29.80
2016,08,20,17,10,29.80
2016,08,20,17,11,29.80
2016,08,20,17,12,29.80
2016,08,20,17,13,29.80
2016,08,20,17,14,29.80
2016,08,20,17,15,29.80
2016,08,20,17,16,29.90
2016,08,20,17,17,29.90
2016,08,20,17,18,29.90
2016,08,20,17,19,29.90